CW9343 Weather Reports


Display with metric or nautical units.
time (UTC)temp
F
wind
direction
speed
MPH
gust
MPH
rain 1hr
in
rain 24hr
in
rain mn
in
humidity
%
barometer
mb
20181120211329 56 57 5.0 11.0 0.00 0.00 0.00 82 1015.1
20181120210329 56 44 4.0 8.0 0.00 0.00 0.00 80 1014.9
20181120205329 56 33 5.0 12.0 0.00 0.00 0.00 79 1014.6
20181120204329 57 50 6.0 12.0 0.00 0.00 0.00 79 1014.4
20181120202329 57 16 5.0 12.0 0.00 0.00 0.00 78 1014.1
20181120192329 61 333 5.0 17.0 0.00 0.00 0.00 65 1013.2
20181120190329 62 354 10.0 14.0 0.00 0.00 0.00 63 1012.9
20181120184329 61 325 8.0 20.0 0.00 0.00 0.00 65 1012.9
20181120183329 61 328 13.0 20.0 0.00 0.00 0.00 65 1012.7
20181120181329 62 4 6.0 16.0 0.00 0.00 0.00 68 1012.7
20181120180329 61 336 10.0 16.0 0.00 0.00 0.00 69 1012.6
20181120175329 61 295 10.0 16.0 0.00 0.01 0.00 72 1012.6
20181120173329 62 13 9.0 16.0 0.00 0.01 0.00 73 1012.7
20181120172329 62 314 7.0 15.0 0.00 0.01 0.00 71 1012.5
20181120171329 62 240 5.0 15.0 0.00 0.01 0.00 74 1012.7
20181120165329 61 333 10.0 17.0 0.00 0.01 0.00 75 1013.0
20181120163329 60 312 5.0 17.0 0.00 0.01 0.00 78 1013.2
20181120162329 60 330 11.0 13.0 0.00 0.01 0.00 80 1013.5
20181120161329 60 272 5.0 13.0 0.00 0.01 0.00 81 1013.5
20181120160329 60 307 9.0 13.0 0.00 0.01 0.00 82 1013.6
20181120153329 59 273 9.0 13.0 0.00 0.01 0.00 86 1013.7
20181120152329 59 274 8.0 13.0 0.00 0.01 0.00 88 1013.7
20181120150329 58 314 4.0 10.0 0.00 0.01 0.00 91 1013.6
20181120145329 57 256 6.0 12.0 0.00 0.01 0.00 93 1013.6
20181120141329 55 288 4.0 10.0 0.00 0.01 0.00 98 1013.0
20181120140329 55 304 5.0 10.0 0.00 0.01 0.00 98 1013.1
20181120134329 54 276 4.0 12.0 0.00 0.01 0.00 99 1013.1
20181120111329 52 232 4.0 9.0 0.00 0.01 0.00 99 1012.6
20181120105329 52 218 3.0 9.0 0.00 0.01 0.00 98 1012.4
20181120104329 52 219 6.0 9.0 0.00 0.01 0.00 98 1012.5
20181120103329 53 241 3.0 9.0 0.00 0.01 0.00 99 1012.3
20181120102329 53 172 4.0 9.0 0.00 0.01 0.00 99 1012.3
20181120100329 52 197 5.0 9.0 0.00 0.01 0.00 99 1012.4
20181120095329 52 210 3.0 12.0 0.00 0.01 0.00 98 1012.5
20181120094329 52 197 4.0 12.0 0.00 0.01 0.00 98 1012.5
20181120093329 53 216 4.0 12.0 0.00 0.01 0.00 98 1012.5
20181120092329 53 210 5.0 12.0 0.00 0.01 0.00 98 1012.5
20181120085329 53 197 6.0 14.0 0.00 0.01 0.00 99 1012.8
20181120083329 53 231 7.0 12.0 0.00 0.01 0.00 99 1012.8
20181120081329 53 243 3.0 12.0 0.00 0.01 0.00 99 1013.0
20181120080329 53 214 7.0 10.0 0.00 0.01 0.00 99 1013.2
20181120075329 53 210 6.0 13.0 0.00 0.01 0.00 99 1013.3
20181120071329 53 206 4.0 13.0 0.00 0.01 0.00 99 1013.2
20181120070329 53 231 4.0 9.0 0.00 0.01 0.00 99 1013.3
20181120063329 52 268 4.0 15.0 0.00 0.01 0.00 99 1013.7
20181120062329 52 207 5.0 13.0 0.00 0.01 0.00 99 1013.7
20181120055329 52 208 6.0 11.0 0.00 0.01 0.00 99 1014.0
20181120053329 52 235 4.0 10.0 0.00 0.01 0.00 99 1014.2
20181120051329 52 220 3.0 10.0 0.00 0.01 0.00 99 1014.2
20181120050329 52 207 3.0 6.0 0.00 0.01 0.00 99 1014.6
20181120044329 52 230 6.0 13.0 0.00 0.01 0.01 98 1014.7
20181120043329 52 220 8.0 13.0 0.00 0.01 0.01 98 1014.7
20181120041329 52 225 4.0 11.0 0.00 0.01 0.01 98 1014.5
20181120040329 52 179 5.0 8.0 0.00 0.01 0.01 98 1014.5
20181120033329 52 204 8.0 11.0 0.00 0.01 0.01 98 1015.0
20181120031329 52 257 5.0 10.0 0.00 0.01 0.01 98 1015.1
20181120030329 52 240 4.0 9.0 0.00 0.01 0.01 97 1014.9
20181120025329 52 234 4.0 13.0 0.00 0.01 0.01 97 1014.6
20181120022329 52 221 4.0 12.0 0.00 0.01 0.01 97 1015.2
20181120020329 52 176 5.0 10.0 0.00 0.01 0.01 97 1015.4
20181120015329 52 224 6.0 10.0 0.00 0.01 0.01 97 1015.2
20181120014329 53 223 3.0 10.0 0.00 0.01 0.01 97 1015.4
20181120013329 53 218 3.0 10.0 0.00 0.01 0.01 97 1015.6
20181120012329 53 210 6.0 10.0 0.00 0.01 0.01 97 1015.7
20181120005329 53 231 5.0 11.0 0.00 0.01 0.01 97 1015.8
20181120002329 53 192 3.0 10.0 0.00 0.01 0.01 97 1015.8
20181120001329 53 231 6.0 10.0 0.00 0.01 0.01 96 1015.8
20181120000329 54 215 3.0 6.0 0.00 0.01 0.01 96 1016.0
20181119235329 54 239 10.0 12.0 0.00 0.01 0.01 96 1016.1
20181119234329 54 187 4.0 12.0 0.00 0.01 0.01 96 1016.1
20181119233329 54 162 6.0 12.0 0.00 0.01 0.01 96 1016.1
20181119230329 54 202 3.0 7.0 0.00 0.01 0.01 96 1016.0
20181119222329 54 195 3.0 10.0 0.00 0.01 0.01 96 1015.9
20181119221329 54 189 4.0 9.0 0.00 0.01 0.01 95 1016.0
20181119220329 55 206 3.0 7.0 0.00 0.01 0.01 95 1016.0
20181119215329 55 225 3.0 10.0 0.00 0.01 0.01 95 1016.0
20181119214329 55 210 3.0 10.0 0.00 0.01 0.01 95 1016.1
20181119212329 55 154 3.0 8.0 0.00 0.01 0.01 95 1016.1